Location: Joplin, MO
(37.0842°N, 94.5133°W)
Time: 21:11:43
(UTC+02:00)

Transit 2A Rocket - Pass Details

Date: 26 March 2023
Orbit: 584 x 914 km, 66.7° (Epoch: 06 June)

Event Time Altitude Azimuth Distance (km) Brightness Sun altitude
Rises 19:34:01 0° 223° (SW) 3,195 8.4 53.4°
Reaches altitude 10° 19:36:23 10° 228° (SW) 2,325 7.8 53.6°
Maximum altitude 19:41:35 48° 303° (WNW) 1,070 6.1 53.9°
Drops below altitude 10° 19:47:15 10° 17° (NNE) 2,530 7.5 54.2°
Sets 19:49:56 0° 23° (NNE) 3,505 8.1 54.4°
